Location: Castelbiague
(43.0361°N, 0.9246°E)
Time: 20:24:27
(UTC+00:00)

Meteor 1-4 Rocket - Pass Details

Date: 22 October 2021
Orbit: 447 x 496 km, 81.2° (Epoch: 04 December)

Event Time Altitude Azimuth Distance (km) Brightness Sun altitude
Rises 17:51:19 0° 156° (SSE) 2,475 6.0 -9.6°
Reaches altitude 10° 17:53:46 10° 139° (SE) 1,598 4.9 -10.1°
Maximum altitude 17:56:21 20° 91° (E) 1,124 3.8 -10.5°
Drops below altitude 10° 17:58:55 10° 43° (NE) 1,593 4.7 -11.0°
Enters shadow 17:59:12 - 40° (NE) 1,681 4.9 -11.1°
